Iowa Falls, IA

2:46 AM CST on December 10, 2019 (GMT -0600)
Iowa Falls Municipal

Weather History for KIFA - October, 2019

Change the Weather History Date:

Saturday, October 5, 2019

  Actual Average Record
Temperature  
Mean Temperature 56 °F -  
Max Temperature 64 °F 66 °F 95 °F (1963)
Min Temperature 47 °F 43 °F 25 °F (1952)
Degree Days  
Heating Degree Days 10    
Growing Degree Days 6 (Base 50)    
Moisture  
Dew Point 47 °F    
Average Humidity 78    
Maximum Humidity 89    
Minimum Humidity 56    
Precipitation  
Precipitation 0.94 in - - ()
Sea Level Pressure  
Sea Level Pressure 29.94 in    
Wind  
Wind Speed 11 mph ()    
Max Wind Speed 20 mph    
Max Gust Speed 26 mph    
Visibility 8.9 miles    
Events Rain    
Averages and records for this station are not official NWS values.
T = Trace of Precipitation, MM = Missing Value Source: Averaged Metar Reports

Daily Weather History Graph

Daily Weather History Graph

Search for Another Location

Airport or City:

Astronomy

Oct. 05, 2019 Rise Set
Actual Time 7:14 AM CDT 6:47 PM CDT
Civil Twilight 6:46 AM CDT 7:15 PM CDT
Nautical Twilight 6:13 AM CDT 7:48 PM CDT
Astronomical Twilight 5:40 AM CDT 8:21 PM CDT
Moon 2:47 PM CDT (10/5) No Moon Set
Length of Visible Light 12h 29m
Length of Day
11h 33m
Waxing Crescent, 50% of the Moon is Illuminated
Oct 5
Waxing Crescent
Oct 13
Full
Oct 21
Last Quarter
Oct 27
New
Nov 4
First Quarter

Hourly Weather History & Observations

Time (CDT) Temp. Dew Point Humidity Pressure Visibility Wind Dir Wind Speed Gust Speed Precip Events Conditions
12:15 AM 53.6 °F 44.6 °F 72% 30.16 in 10.0 mi ESE 13.8 mph - N/A   Mostly Cloudy
12:35 AM 53.4 °F 44.8 °F 73% 30.15 in 10.0 mi ESE 10.4 mph - N/A   Mostly Cloudy
12:55 AM 53.1 °F 45.1 °F 74% 30.14 in 10.0 mi ESE 9.2 mph - N/A   Scattered Clouds
1:15 AM 53.2 °F 45.5 °F 75% 30.14 in 10.0 mi ESE 9.2 mph - N/A   Clear
1:35 AM 54.0 °F 45.7 °F 74% 30.15 in 10.0 mi SE 9.2 mph - N/A   Mostly Cloudy
1:55 AM 54.0 °F 45.9 °F 74% 30.17 in 10.0 mi SSE 9.2 mph - N/A Rain Rain
2:15 AM 53.1 °F 46.8 °F 79% 30.16 in 10.0 mi SSE 8.1 mph - 0.02 in Rain Rain
2:35 AM 52.7 °F 47.1 °F 81% 30.12 in 7.0 mi ESE 11.5 mph 16.1 mph 0.07 in Rain Rain
2:55 AM 52.0 °F 47.3 °F 84% 30.10 in 3.0 mi ESE 9.2 mph - 0.23 in Rain Heavy Rain
3:15 AM 52.3 °F 47.7 °F 84% 30.09 in 10.0 mi ESE 11.5 mph 16.1 mph N/A Rain Light Rain
3:35 AM 52.3 °F 47.7 °F 84% 30.07 in 10.0 mi ESE 16.1 mph 19.6 mph N/A   Overcast
3:55 AM 52.2 °F 47.5 °F 84% 30.06 in 10.0 mi ESE 13.8 mph 20.7 mph N/A   Overcast
4:15 AM 52.2 °F 47.3 °F 83% 30.05 in 10.0 mi SE 15.0 mph 23.0 mph N/A   Overcast
4:35 AM 52.0 °F 46.6 °F 82% 30.06 in 10.0 mi SE 15.0 mph 23.0 mph 0.01 in Rain Light Rain
4:55 AM 51.8 °F 46.4 °F 82% 30.07 in 5.0 mi SE 10.4 mph - 0.06 in Rain Heavy Rain
5:15 AM 51.3 °F 46.4 °F 83% 30.06 in 7.0 mi ESE 10.4 mph - 0.03 in Rain Rain
5:35 AM 51.1 °F 46.4 °F 84% 30.03 in 10.0 mi ESE 12.7 mph 19.6 mph 0.07 in Rain Light Rain
5:55 AM 50.9 °F 46.4 °F 85% 30.01 in 10.0 mi ESE 17.3 mph 23.0 mph 0.10 in Rain Light Rain
6:15 AM 50.9 °F 46.4 °F 85% 29.99 in 10.0 mi ESE 17.3 mph 23.0 mph N/A   Overcast
6:35 AM 50.9 °F 46.0 °F 83% 29.97 in 10.0 mi ESE 13.8 mph 21.9 mph N/A   Overcast
6:55 AM 50.9 °F 46.0 °F 83% 29.98 in 10.0 mi SE 15.0 mph 21.9 mph N/A   Overcast
7:15 AM 50.9 °F 45.9 °F 83% 29.97 in 10.0 mi SE 15.0 mph - N/A   Overcast
7:35 AM 50.9 °F 45.5 °F 82% 29.92 in 10.0 mi ESE 16.1 mph 21.9 mph N/A   Mostly Cloudy
7:55 AM 50.9 °F 45.7 °F 82% 29.90 in 10.0 mi SE 18.4 mph 23.0 mph N/A   Mostly Cloudy
8:15 AM 51.1 °F 46.0 °F 83% 29.93 in 10.0 mi SE 15.0 mph 24.2 mph N/A   Overcast
8:35 AM 51.1 °F 46.2 °F 83% 29.91 in 10.0 mi SE 19.6 mph 26.5 mph N/A Rain Rain
8:55 AM 51.1 °F 46.4 °F 84% 29.90 in 5.0 mi SE 15.0 mph 23.0 mph 0.07 in Rain Heavy Rain
9:15 AM 51.3 °F 46.8 °F 85% 29.95 in 7.0 mi South 4.6 mph - 0.15 in Rain Rain
9:35 AM 51.8 °F 47.3 °F 85% 29.92 in 10.0 mi SSE 10.4 mph - 0.19 in Rain Rain
9:55 AM 51.8 °F 47.7 °F 86% 29.92 in 5.0 mi SSE 11.5 mph - 0.26 in Rain Heavy Rain
10:15 AM 51.8 °F 47.7 °F 86% 29.91 in 5.0 mi SE 16.1 mph 20.7 mph 0.08 in Rain Rain
10:35 AM 51.8 °F 47.5 °F 85% 29.87 in 4.0 mi SE 16.1 mph 24.2 mph 0.18 in Rain Heavy Rain
10:55 AM 51.3 °F 47.3 °F 86% 29.87 in 7.0 mi SSE 15.0 mph 18.4 mph 0.21 in Rain Light Rain
11:15 AM 51.8 °F 47.7 °F 86% 29.86 in 10.0 mi SSE 16.1 mph 23.0 mph N/A Rain Rain
11:35 AM 52.2 °F 48.2 °F 86% 29.86 in 10.0 mi SSE 16.1 mph 23.0 mph N/A   Overcast
11:55 AM 52.3 °F 48.2 °F 86% 29.84 in 10.0 mi SSE 16.1 mph 21.9 mph N/A   Light Drizzle
12:15 PM 52.9 °F 48.9 °F 86% 29.84 in 10.0 mi SSE 13.8 mph 19.6 mph N/A Rain Rain
12:35 PM 53.6 °F 49.5 °F 86% 29.84 in 4.0 mi SSE 12.7 mph - N/A Rain Rain
12:55 PM 54.0 °F 50.0 °F 86% 29.84 in 2.5 mi South 11.5 mph - N/A Rain Rain
1:15 PM 54.5 °F 50.7 °F 87% 29.82 in 3.0 mi South 11.5 mph 16.1 mph N/A   Drizzle
1:35 PM 54.9 °F 50.9 °F 86% 29.83 in 5.0 mi South 10.4 mph - N/A Rain Light Rain
1:55 PM 55.4 °F 51.8 °F 88% 29.83 in 7.0 mi South 9.2 mph - N/A Rain Light Rain
2:15 PM 56.3 °F 52.7 °F 88% 29.82 in 4.0 mi South 9.2 mph - N/A Rain Rain
2:35 PM 57.4 °F 54.1 °F 89% 29.82 in 10.0 mi South 9.2 mph - N/A   Overcast
2:55 PM 58.6 °F 55.4 °F 89% 29.81 in 10.0 mi SW 6.9 mph - N/A   Overcast
3:15 PM 60.1 °F 56.7 °F 88% 29.81 in 10.0 mi SSW 10.4 mph - N/A   Mostly Cloudy
3:35 PM 61.9 °F 58.3 °F 88% 29.81 in 10.0 mi SW 8.1 mph - N/A   Mostly Cloudy
3:55 PM 63.1 °F 59.0 °F 86% 29.81 in 10.0 mi WSW 13.8 mph - N/A   Overcast
4:15 PM 63.5 °F 54.3 °F 72% 29.82 in 10.0 mi West 17.3 mph 24.2 mph 0.01 in   Mostly Cloudy
4:35 PM 62.8 °F 50.5 °F 64% 29.83 in 10.0 mi West 13.8 mph 26.5 mph 0.01 in   Mostly Cloudy
4:55 PM 62.1 °F 48.6 °F 61% 29.84 in 10.0 mi West 13.8 mph - 0.01 in   Scattered Clouds
5:15 PM 63.5 °F 48.2 °F 57% 29.84 in 10.0 mi West 19.6 mph 25.3 mph N/A   Mostly Cloudy
5:35 PM 61.9 °F 46.0 °F 56% 29.86 in 10.0 mi West 15.0 mph 25.3 mph N/A   Mostly Cloudy
5:55 PM 61.5 °F 45.5 °F 56% 29.87 in 10.0 mi West 16.1 mph 26.5 mph N/A   Mostly Cloudy
6:15 PM 60.1 °F 44.8 °F 57% 29.87 in 10.0 mi West 11.5 mph 20.7 mph N/A   Clear
6:35 PM 59.2 °F 43.9 °F 57% 29.88 in 10.0 mi West 15.0 mph 24.2 mph N/A   Clear
6:55 PM 57.9 °F 43.0 °F 58% 29.89 in 10.0 mi WNW 17.3 mph 24.2 mph N/A   Clear
7:15 PM 56.7 °F 42.3 °F 59% 29.90 in 10.0 mi WNW 12.7 mph 20.7 mph N/A   Clear
7:35 PM 55.4 °F 42.4 °F 62% 29.91 in 10.0 mi WNW 9.2 mph - N/A   Clear
7:55 PM 53.4 °F 42.4 °F 66% 29.92 in 10.0 mi West 6.9 mph - N/A   Clear
8:15 PM 51.4 °F 42.6 °F 72% 29.92 in 10.0 mi WSW 5.8 mph - N/A   Clear
8:35 PM 50.7 °F 43.0 °F 75% 29.94 in 10.0 mi SSW 8.1 mph - N/A   Clear
8:55 PM 52.3 °F 43.3 °F 71% 29.94 in 10.0 mi SSW 8.1 mph - N/A   Clear
9:15 PM 50.9 °F 43.2 °F 75% 29.94 in 10.0 mi West 8.1 mph - N/A   Clear
9:35 PM 53.6 °F 42.4 °F 66% 29.94 in 10.0 mi SW 6.9 mph - N/A   Clear
10:15 PM 52.0 °F 42.3 °F 69% 29.95 in 10.0 mi WSW 6.9 mph - N/A   Clear
10:55 PM 50.2 °F 42.6 °F 75% 29.97 in 10.0 mi SW 6.9 mph - N/A   Clear
11:15 PM 49.1 °F 42.8 °F 79% 29.97 in 10.0 mi SW 8.1 mph - N/A   Clear
11:35 PM 48.6 °F 42.4 °F 79% 29.98 in 10.0 mi WSW 8.1 mph - N/A   Clear
11:55 PM 47.8 °F 42.1 °F 80% 29.99 in 10.0 mi WSW 8.1 mph - N/A   Clear